Terug naar catalogus

SL-12 R/B

AUX MOTOR

ActiefHEO
NORAD 21013·ROCKET BODY·🇷🇺 Russia

Gelanceerd Dec 8, 1990 vanaf Baikonur Cosmodrome

Loading…

Volgende Passages (komende 24 uur)

TLE

VersSource: Space-Track

Epoch: Sep 14, 2026, 03:47 UTC

1 21013U 90110H   26257.15823409  .00002508  00000-0  85170-3 0  9991
2 21013  65.1309 275.1455 5375981 326.5735   8.8529  4.96190194593395

Volg SL-12 R/B in realtime met AllMySat

Download on the App Store